STARLINK-5699 (55449 NORAD) Tracking and Keplerian Element Data

This shows tracking and keplerian element data for the satellite.

Feedback or suggestion? Click here.




ElementValue
Catalog55449
NameSTARLINK-5699
Epoch Orbit1433
Epoch Day124.83334491
Epoch Year2023
RAAN216.7076
Inclination43.0011
Eccentricity0.0001708
Argument of Perigee277.4654
Mean Anonmoly226.4954
Mean Motion15.02524911
Decay Rate0.00017122
L11 55449U 23015A 23124.83334491 .00017122 00000+0 12798-2 0 9996
L22 55449 43.0011 216.7076 0001708 277.4654 226.4954 15.02524911 14331



Live tracking and technical data element details for STARLINK-5699 (NORAD 55449). STARLINK-5699 can be tracked NOW for your location showing map with azimuth and elevation plus other details from your city location.







IsCatalogInMostPopularTable: catalog: 55449, numindb: -1

Insert: records affected: 1


GetName: 55449 STARLINK-5699

Hit Count: inserted at: Mon, 05 Jun 2023 20:46:31 GMT